User: anonymous   Login
Location: Morisset
(33.1080°S, 151.4871°E)
Time: 02:59:12
(UTC+00:00)
Language:

Spot 4 Rocket - Orbit

View from above orbital plane
View from above orbital plane
View from above satellite
View from above satellite

Ground track
Ground track

The orbit data is extracted from the following two-line orbital elements,

1 25261U 98017B   21015.51748524  .00000078  00000-0  44134-4 0  9991
2 25261  98.7192 340.3211 0003294 171.5476 188.5764 14.33878368192234
Epoch (UTC): 15 January 2021 12:25:10
Eccentricity: 0.0003294
inclination: 98.7192°
perigee height: 776 km
apogee height: 781 km
right ascension of ascending node: 340.3211°
argument of perigee: 171.5476°
revolutions per day: 14.33878368
mean anomaly at epoch: 188.5764°
orbit number at epoch: 19223

The dashed part of the orbit path shows where the satellite is in the earth's shadow,  

DLR